Location: Martinez
(33.5170°N, 82.0760°W)
Time: 08:06:23
(UTC-04:00)

Hubble Space Telescope - Visible Passes

Search period start: 24 August 2016 00:00
Search period end: 03 September 2016 00:00
Orbit: 539 x 543 km, 28.5° (Epoch: 24 August)

Date Brightness Start Highest point End Pass type
(mag) Time Alt. Az. Time Alt. Az. Time Alt. Az.
24 Aug 1.6 21:06:32 10° WSW 21:10:23 36° S 21:12:19 23° SE visible
25 Aug 1.8 20:56:50 10° WSW 21:00:35 33° S 21:03:00 18° SE visible
26 Aug 2.0 20:47:08 10° WSW 20:50:47 30° SSW 20:53:43 14° SE visible
27 Aug 2.3 20:37:28 10° WSW 20:40:58 26° SSW 20:44:26 10° SE visible
28 Aug 2.6 20:27:52 10° WSW 20:31:08 22° SSW 20:34:23 10° SE visible
29 Aug 2.8 20:18:21 10° WSW 20:21:18 19° SSW 20:24:14 10° SSE visible
